Tracking 29489 objects as of 10-Sep-2024
HD Live streaming from Space Station
objects crossing your sky now

FENGYUN 1C DEB

Track FENGYUN 1C DEB now!
10-day predictions


NORAD ID: 33647
Int'l Code: 1999-025DEG
Perigee: 767.2 km
Apogee: 1,143.2 km
Inclination: 98.2 °
Period: 104.0 minutes
Semi major axis: 7326 km
RCS: 0.0163 m2 (small)
Launch date: May 10, 1999
Source: People's Republic of China (PRC)
Launch site: Taiyaun Space Center, China (TSC)

Note: This is SATELLITE DEBRIS
Your satellite tracking list
Your tracking list is empty




NASA's NSSDC Master Catalog

Two Line Element Set (TLE):
1 33647U 99025DEG 24250.56590529  .00011093  00000-0  76859-2 0  9993
2 33647  98.2323 155.0032 0256572 294.2353  63.2191 13.84475580838065
Source of the keplerian elements: AFSPC